Photometre #140[NE_1.6] Ersa AOT

File : 20200926_140.hum

26/09/2020,06:03:49,TEMP=18.4,BA=5.28,STAT.h
26/09/2020,06:07:22,TEMP=18.4,BA=5.28,STAT.h
26/09/2020,06:11:30,TEMP=18.4,BA=5.28,STAT.h
26/09/2020,06:11:33,TEMP=18.4,BA=5.28,STAT.b=Abs.
26/09/2020,06:16:25,TEMP=18.4,BA=5.28,STAT.h
26/09/2020,06:16:29,TEMP=18.4,BA=5.28,STAT.b=Abs.
26/09/2020,06:22:21,TEMP=18.4,BA=5.28,STAT.h
26/09/2020,06:29:41,TEMP=18.4,BA=5.28,STAT.h
26/09/2020,06:38:57,TEMP=18.4,BA=5.28,STAT.h
26/09/2020,06:43:24,TEMP=18.4,BA=5.28,STAT.h
26/09/2020,06:48:25,TEMP=18.4,BA=5.28,STAT.h
26/09/2020,06:48:28,TEMP=18.4,BA=5.28,STAT.b=Abs.
26/09/2020,06:54:00,TEMP=18.4,BA=5.28,STAT.h
26/09/2020,06:54:03,TEMP=18.4,BA=5.28,STAT.b=Abs.
26/09/2020,07:00:24,TEMP=18.4,BA=5.28,STAT.h
26/09/2020,07:08:11,TEMP=19.2,BA=5.28,STAT.C=Abs.,ExtBa=13.08
26/09/2020,07:16:41,TEMP=19.6,BA=5.28,STAT.A=Abs.,ExtBa=13.02
26/09/2020,07:26:29,TEMP=19.6,BA=5.28,STAT.h
26/09/2020,07:39:02,TEMP=20.1,BA=5.28,STAT.A=Abs.,ExtBa=13.04
26/09/2020,07:54:08,TEMP=20.0,BA=5.28,STAT.A=Abs.,ExtBa=13.01
26/09/2020,08:13:25,TEMP=19.5,BA=5.28,STAT.B=Abs.,ExtBa=13.03
26/09/2020,08:15:18,TEMP=19.6,BA=5.28,STAT.F,ExtBa=12.95
26/09/2020,08:29:12,TEMP=19.1,BA=5.28,STAT.D=Abs.,ExtBa=13.02
26/09/2020,08:44:12,TEMP=19.1,BA=5.24,STAT.D=Abs.,ExtBa=13.02
26/09/2020,08:59:12,TEMP=19.1,BA=5.28,STAT.D=Abs.,ExtBa=13.03
26/09/2020,09:14:14,TEMP=19.0,BA=5.28,STAT.F,ExtBa=13.04
26/09/2020,09:29:12,TEMP=18.8,BA=5.24,STAT.D=Abs.,ExtBa=13.03
26/09/2020,09:29:25,TEMP=18.8,BA=5.24,STAT.h
26/09/2020,09:44:13,TEMP=18.6,BA=5.24,STAT.D=Abs.,ExtBa=13.04
26/09/2020,09:59:12,TEMP=18.6,BA=5.24,STAT.D=Abs.,ExtBa=13.04
26/09/2020,10:14:14,TEMP=18.8,BA=5.24,STAT.F,ExtBa=13.03
26/09/2020,10:29:12,TEMP=18.6,BA=5.24,STAT.D=Abs.,ExtBa=13.04
26/09/2020,10:44:12,TEMP=18.6,BA=5.24,STAT.D=Abs.,ExtBa=13.04
26/09/2020,10:59:12,TEMP=18.8,BA=5.24,STAT.D=Abs.,ExtBa=13.04
26/09/2020,11:14:14,TEMP=18.5,BA=5.24,STAT.F,ExtBa=13.04
26/09/2020,11:29:12,TEMP=18.7,BA=5.24,STAT.D=Abs.,ExtBa=13.04
26/09/2020,11:44:12,TEMP=18.8,BA=5.24,STAT.D=Abs.,ExtBa=13.04
26/09/2020,11:59:12,TEMP=18.8,BA=5.24,STAT.D=Abs.,ExtBa=13.04
26/09/2020,12:14:14,TEMP=18.8,BA=5.24,STAT.F,ExtBa=13.04
26/09/2020,12:15:42,TEMP=18.8,BA=5.24,STAT.b=Abs.
26/09/2020,12:29:12,TEMP=19.0,BA=5.24,STAT.D=Abs.,ExtBa=13.04
26/09/2020,12:44:12,TEMP=19.0,BA=5.24,STAT.D=Abs.,ExtBa=13.03
26/09/2020,12:59:12,TEMP=19.1,BA=5.24,STAT.D=Abs.,ExtBa=13.04
26/09/2020,13:14:14,TEMP=19.1,BA=5.24,STAT.F,ExtBa=13.04
26/09/2020,13:29:12,TEMP=19.5,BA=5.24,STAT.D=Abs.,ExtBa=13.04
26/09/2020,13:44:12,TEMP=19.5,BA=5.24,STAT.D=Abs.,ExtBa=13.03
26/09/2020,13:59:12,TEMP=19.6,BA=5.24,STAT.D=Abs.,ExtBa=13.03
26/09/2020,14:14:13,TEMP=19.2,BA=5.24,STAT.F,ExtBa=13.03
26/09/2020,14:16:04,TEMP=19.3,BA=5.24,STAT.B=Abs.,ExtBa=12.96
26/09/2020,14:34:18,TEMP=19.4,BA=5.24,STAT.A=Abs.,ExtBa=13.03
26/09/2020,14:49:24,TEMP=19.9,BA=5.24,STAT.A=Abs.,ExtBa=13.03
26/09/2020,15:01:37,TEMP=20.3,BA=5.24,STAT.A=Abs.,ExtBa=13.03
26/09/2020,15:11:45,TEMP=20.5,BA=5.24,STAT.A=Abs.,ExtBa=13.02
26/09/2020,15:20:20,TEMP=20.1,BA=5.24,STAT.C=Abs.,ExtBa=13.01
26/09/2020,15:27:42,TEMP=20.3,BA=5.24,STAT.A=Abs.,ExtBa=13.00
26/09/2020,15:34:06,TEMP=20.3,BA=5.24,STAT.A=Abs.,ExtBa=12.99
26/09/2020,15:39:43,TEMP=20.4,BA=5.24,STAT.A=Abs.,ExtBa=12.99
26/09/2020,15:44:42,TEMP=20.2,BA=5.16,STAT.A=Abs.,ExtBa=12.98
26/09/2020,15:49:09,TEMP=20.1,BA=5.16,STAT.B=Abs.,ExtBa=12.98
26/09/2020,15:58:24,TEMP=19.8,BA=5.16,STAT.A=Abs.,ExtBa=13.01
26/09/2020,16:05:45,TEMP=19.7,BA=5.20,STAT.A=Abs.,ExtBa=13.00
26/09/2020,16:11:41,TEMP=19.6,BA=5.20,STAT.A=Abs.,ExtBa=12.99
26/09/2020,16:16:35,TEMP=19.7,BA=5.20,STAT.A=Abs.,ExtBa=12.99
26/09/2020,16:20:43,TEMP=19.7,BA=5.20,STAT.A=Abs.,ExtBa=12.98
26/09/2020,16:24:16,TEMP=19.6,BA=5.20,STAT.A=Abs.,ExtBa=12.97
26/09/2020,16:24:20,TEMP=19.6,BA=5.20,STAT.h